H1 CPF 2 NER 2025 11 25 9 329 01 glonass132 H2 1401201 9132 39620 2025 11 25 0 0 0 2025 11 28 23 45 0 900 1 1 0 0 0 1 H9 10 0 61004 0.00000 0 2301651.906 24332022.446 -7357132.901 10 0 61004 900.00000 0 2186729.175 23228257.087 -10340982.749 10 0 61004 1800.00000 0 1872424.044 21801450.061 -13124224.053 10 0 61004 2700.00000 0 1324287.340 20101461.739 -15652752.443 10 0 61004 3600.00000 0 518493.718 18186137.684 -17877357.302 10 0 61004 4500.00000 0 -556895.206 16118963.647 -19754684.673 10 0 61004 5400.00000 0 -1901169.962 13966499.331 -21248089.513 10 0 61004 6300.00000 0 -3500749.023 11795697.602 -22328360.173 10 0 61004 7200.00000 0 -5329503.332 9671220.901 -22974300.267 10 0 61004 8100.00000 0 -7349618.549 7652867.004 -23173155.796 10 0 61004 9000.00000 0 -9512961.315 5793211.929 -22920878.232 10 0 61004 9900.00000 0 -11762894.320 4135568.980 -22222217.404 10 0 61004 10800.00000 0 -14036465.785 2712349.774 -21090641.325 10 0 61004 11700.00000 0 -16266882.674 1543896.315 -19548083.475 10 0 61004 12600.00000 0 -18386164.484 637833.364 -17624521.609 10 0 61004 13500.00000 0 -20327866.229 -11031.723 -15357395.649 10 0 61004 14400.00000 0 -22029755.889 -420257.852 -12790875.649 10 0 61004 15300.00000 0 -23436332.979 -618787.568 -9974994.228 10 0 61004 16200.00000 0 -24501081.435 -645475.635 -6964660.880 10 0 61004 17100.00000 0 -25188361.154 -547192.667 -3818578.266 10 0 61004 18000.00000 0 -25474857.884 -376585.987 -598082.975 10 0 61004 18900.00000 0 -25350530.227 -189594.657 2634065.147 10 0 61004 19800.00000 0 -24819014.088 -42826.130 5814919.858 10 0 61004 20700.00000 0 -23897468.386 9092.328 8882585.873 10 0 61004 21600.00000 0 -22615869.734 -83926.432 11777431.271 10 0 61004 22500.00000 0 -21015787.352 -365067.761 14443250.440 10 0 61004 23400.00000 0 -19148691.397 -868552.389 16828354.439 10 0 61004 24300.00000 0 -17073867.308 -1617959.799 18886567.705 10 0 61004 25200.00000 0 -14856024.859 -2625008.284 20578112.425 10 0 61004 26100.00000 0 -12562702.787 -3888842.507 21870364.508 10 0 61004 27000.00000 0 -10261577.589 -5395857.805 22738468.024 10 0 61004 27900.00000 0 -8017788.262 -7120068.002 23165797.917 10 0 61004 28800.00000 0 -5891387.310 -9024000.856 23144263.778 10 0 61004 29700.00000 0 -3935022.409 -11060083.618 22674450.403 10 0 61004 30600.00000 0 -2191943.016 -13172461.191 21765593.778 10 0 61004 31500.00000 0 -694412.517 -15299171.764 20435393.863 10 0 61004 32400.00000 0 537410.440 -17374590.409 18709668.313 10 0 61004 33300.00000 0 1496077.100 -19332040.252 16621853.814 10 0 61004 34200.00000 0 2186916.907 -21106464.000 14212364.284 10 0 61004 35100.00000 0 2627567.629 -22637046.064 11527817.578 10 0 61004 36000.00000 0 2846987.941 -23869677.394 8620144.582 10 0 61004 36900.00000 0 2883994.328 -24759161.290 5545596.821 10 0 61004 37800.00000 0 2785383.787 -25271068.824 2363670.515 10 0 61004 38700.00000 0 2603720.982 -25383166.612 -864033.195 10 0 61004 39600.00000 0 2394882.565 -25086356.990 -4074990.755 10 0 61004 40500.00000 0 2215461.699 -24385090.612 -7206959.345 10 0 61004 41400.00000 0 2120141.929 -23297233.114 -10199177.892 10 0 61004 42300.00000 0 2159151.192 -21853390.108 -12993542.992 10 0 61004 43200.00000 0 2375903.771 -20095717.218 -15535737.047 10 0 61004 44100.00000 0 2804930.478 -18076263.415 -17776286.660 10 0 61004 45000.00000 0 3470185.677 -15854915.460 -19671530.457 10 0 61004 45900.00000 0 4383804.218 -13497028.095 -21184477.149 10 0 61004 46800.00000 0 5545362.737 -11070837.957 -22285536.582 10 0 61004 47700.00000 0 6941678.771 -8644768.523 -22953108.873 10 0 61004 48600.00000 0 8547158.576 -6284738.209 -23174019.310 10 0 61004 49500.00000 0 10324681.468 -4051583.895 -22943789.636 10 0 61004 50400.00000 0 12226985.708 -1998707.666 -22266739.365 10 0 61004 51300.00000 0 14198499.548 -170045.363 -21155914.105 10 0 61004 52200.00000 0 16177541.889 1401557.737 -19632841.247 10 0 61004 53100.00000 0 18098800.883 2695495.835 -17727116.895 10 0 61004 54000.00000 0 19895986.479 3704027.907 -15475831.405 10 0 61004 54900.00000 0 21504545.108 4432353.381 -12922844.410 10 0 61004 55800.00000 0 22864321.465 4898135.696 -10117923.501 10 0 61004 56700.00000 0 23922054.351 5130494.935 -7115763.875 10 0 61004 57600.00000 0 24633600.336 5168513.629 -3974908.935 10 0 61004 58500.00000 0 24965790.547 5059320.777 -756594.193 10 0 61004 59400.00000 0 24897841.682 4855837.358 2476461.440 10 0 61004 60300.00000 0 24422261.543 4614281.039 5661291.849 10 0 61004 61200.00000 0 23545211.211 4391537.942 8735921.623 10 0 61004 62100.00000 0 22286309.402 4242514.720 11640580.290 10 0 61004 63000.00000 0 20677888.380 4217584.503 14318868.251 10 0 61004 63900.00000 0 18763734.146 4360235.762 16718851.219 10 0 61004 64800.00000 0 16597365.190 4705023.814 18794061.996 10 0 61004 65700.00000 0 14239923.210 5275911.350 20504390.744 10 0 61004 66600.00000 0 11757764.919 6085067.326 21816847.574 10 0 61004 67500.00000 0 9219855.870 7132174.003 22706184.155 10 0 61004 68400.00000 0 6695074.669 8404270.325 23155364.030 10 0 61004 69300.00000 0 4249538.925 9876137.466 23155874.258 10 0 61004 70200.00000 0 1944062.635 11511209.891 22707873.990 10 0 61004 71100.00000 0 -168151.342 13262973.745 21820178.488 10 0 61004 72000.00000 0 -2043490.119 15076794.463 20510079.819 10 0 61004 72900.00000 0 -3649501.149 16892098.082 18803008.249 10 0 61004 73800.00000 0 -4965991.226 18644816.348 16732040.885 10 0 61004 74700.00000 0 -5985610.484 20269994.933 14337266.670 10 0 61004 75600.00000 0 -6713898.855 21704457.364 11665019.273 10 0 61004 76500.00000 0 -7168794.364 22889414.815 8766991.623 10 0 61004 77400.00000 0 -7379624.638 23772913.846 5699248.095 10 0 61004 78300.00000 0 -7385624.280 24312020.579 2521152.224 10 0 61004 79200.00000 0 -7234040.302 24474650.252 -705770.444 10 0 61004 80100.00000 0 -6977904.990 24240965.448 -3919013.303 10 0 61004 81000.00000 0 -6673569.531 23604283.770 -7056291.365 10 0 61004 81900.00000 0 -6378101.950 22571455.887 -10056742.960 10 0 61004 82800.00000 0 -6146658.847 21162696.649 -12862107.437 10 0 61004 83700.00000 0 -6029941.868 19410874.641 -15417856.181 10 0 61004 84600.00000 0 -6071846.653 17360288.071 -17674254.947 10 0 61004 85500.00000 0 -6307404.285 15064976.374 -19587336.603 10 0 61005 0.00000 0 -6761103.262 12586636.649 -21119764.862 10 0 61005 900.00000 0 -7445664.670 9992229.128 -22241572.451 10 0 61005 1800.00000 0 -8361323.474 7351373.849 -22930756.656 10 0 61005 2700.00000 0 -9495649.120 4733641.960 -23173722.590 10 0 61005 3600.00000 0 -10823914.677 2205857.466 -22965562.469 10 0 61005 4500.00000 0 -12310001.263 -170479.392 -22310165.305 10 0 61005 5400.00000 0 -13907801.519 -2341539.271 -21220153.704 10 0 61005 6300.00000 0 -15563064.530 -4263183.069 -19716647.921 10 0 61005 7200.00000 0 -17215605.487 -5902568.769 -17828860.911 10 0 61005 8100.00000 0 -18801787.431 -7239278.336 -15593531.581 10 0 61005 9000.00000 0 -20257170.436 -8265917.546 -13054206.902 10 0 61005 9900.00000 0 -21519215.849 -8988164.008 -10260386.938 10 0 61005 10800.00000 0 -22529930.619 -9424262.246 -7266549.905 10 0 61005 11700.00000 0 -23238338.910 -9603988.539 -4131077.136 10 0 61005 12600.00000 0 -23602675.490 -9567130.969 -915100.201 10 0 61005 13500.00000 0 -23592207.351 -9361551.060 2318705.843 10 0 61005 14400.00000 0 -23188605.991 -9040911.302 5507357.903 10 0 61005 15300.00000 0 -22386812.323 -8662167.045 8588803.332 10 0 61005 16200.00000 0 -21195358.031 -8282931.055 11503135.913 10 0 61005 17100.00000 0 -19636130.589 -7958823.989 14193764.738 10 0 61005 18000.00000 0 -17743592.910 -7740924.101 16608512.658 10 0 61005 18900.00000 0 -15563491.586 -7673424.563 18700623.041 10 0 61005 19800.00000 0 -13151109.007 -7791597.338 20429655.884 10 0 61005 20700.00000 0 -10569133.413 -8120148.954 21762256.953 10 0 61005 21600.00000 0 -7885236.265 -8672036.489 22672786.545 10 0 61005 22500.00000 0 -5169457.816 -9447792.477 23143797.382 10 0 61005 23400.00000 0 -2491509.048 -10435385.961 23166354.141 10 0 61005 24300.00000 0 81899.202 -11610624.587 22740190.092 10 0 61005 25200.00000 0 2489590.792 -12938080.350 21873699.165 10 0 61005 26100.00000 0 4678219.434 -14372500.064 20583764.617 10 0 61005 27000.00000 0 6604231.568 -15860641.923 18895428.108 10 0 61005 27900.00000 0 8235417.849 -17343462.088 16841405.654 10 0 61005 28800.00000 0 9551990.947 -18758560.986 14461459.444 10 0 61005 29700.00000 0 10547146.765 -20042788.291 11801636.896 10 0 61005 30600.00000 0 11227087.236 -21134898.953 8913390.656 10 0 61005 31500.00000 0 11610504.770 -21978150.285 5852595.396 10 0 61005 32400.00000 0 11727550.568 -22522732.225 2678479.235 10 0 61005 33300.00000 0 11618330.200 -22727929.472 -547510.719 10 0 61005 34200.00000 0 11330989.460 -22563924.827 -3762887.685 10 0 61005 35100.00000 0 10919470.607 -22013167.615 -6905327.383 10 0 61005 36000.00000 0 10441032.986 -21071248.762 -9913870.335 10 0 61005 36900.00000 0 9953642.114 -19747244.379 -12730101.326 10 0 61005 37800.00000 0 9513337.077 -18063511.621 -15299283.268 10 0 61005 38700.00000 0 9171687.357 -16054943.336 -17571423.421 10 0 61005 39600.00000 0 8973446.757 -13767710.594 -19502251.002 10 0 61005 40500.00000 0 8954504.173 -11257543.616 -21054086.791 10 0 61005 41400.00000 0 9140218.800 -8587621.030 -22196587.319 10 0 61005 42300.00000 0 9544211.427 -5826154.028 -22907348.446 10 0 61005 43200.00000 0 10167664.498 -3043764.946 -23172355.789 10 0 61005 44100.00000 0 10999162.317 -310768.783 -22986272.298 10 0 61005 45000.00000 0 12015079.942 2305529.444 -22352556.360 10 0 61005 45900.00000 0 13180506.129 4743408.856 -21283407.054 10 0 61005 46800.00000 0 14450662.829 6949070.850 -19799536.619 10 0 61005 47700.00000 0 15772762.401 8878643.232 -17929773.635 10 0 61005 48600.00000 0 17088224.720 10499766.282 -15710503.964 10 0 61005 49500.00000 0 18335160.608 11792694.227 -13184959.973 10 0 61005 50400.00000 0 19451016.205 12750866.107 -10402371.896 10 0 61005 51300.00000 0 20375265.612 13380922.643 -7416998.334 10 0 61005 52200.00000 0 21052036.826 13702169.534 -4287055.633 10 0 61005 53100.00000 0 21432558.614 13745511.302 -1073568.281 10 0 61005 54000.00000 0 21477323.649 13551902.701 2160835.749 10 0 61005 54900.00000 0 21157875.536 13170385.347 5353159.647 10 0 61005 55800.00000 0 20458143.619 12655794.931 8441276.659 10 0 61005 56700.00000 0 19375269.130 12066238.241 11365147.782 10 0 61005 57600.00000 0 17919888.144 11460448.637 14067993.500 10 0 61005 58500.00000 0 16115860.153 10895133.276 16497396.221 10 0 61005 59400.00000 0 13999454.582 10422425.002 18606311.995 10 0 61005 60300.00000 0 11618030.339 10087546.698 20353972.466 10 0 61005 61200.00000 0 9028264.535 9926786.174 21706660.558 10 0 61005 62100.00000 0 6294004.881 9965865.943 22638346.368 10 0 61005 63000.00000 0 3483835.344 10218775.204 23131172.621 10 0 61005 63900.00000 0 668455.925 10687111.670 23175782.056 10 0 61005 64800.00000 0 -2082015.615 11359959.510 22771482.064 10 0 61005 65700.00000 0 -4700709.630 12214307.435 21926244.801 10 0 61005 66600.00000 0 -7126529.410 13215988.697 20656543.776 10 0 61005 67500.00000 0 -9306432.460 14321103.417 18987030.632 10 0 61005 68400.00000 0 -11197375.910 15477863.961 16950058.448 10 0 61005 69300.00000 0 -12767847.495 16628786.769 14585060.429 10 0 61005 70200.00000 0 -13998920.452 17713139.862 11937795.222 10 0 61005 71100.00000 0 -14884790.109 18669544.647 9059472.460 10 0 61005 72000.00000 0 -15432770.941 19438624.088 6005774.263 10 0 61005 72900.00000 0 -15662755.024 19965587.140 2835790.420 10 0 61005 73800.00000 0 -15606154.838 20202641.620 -389113.315 10 0 61005 74700.00000 0 -15304374.691 20111134.395 -3606472.882 10 0 61005 75600.00000 0 -14806874.617 19663328.673 -6753927.523 10 0 61005 76500.00000 0 -14168907.657 18843742.897 -9770422.671 10 0 61005 77400.00000 0 -13449025.244 17649993.654 -12597391.108 10 0 61005 78300.00000 0 -12706455.316 16093105.427 -15179889.619 10 0 61005 79200.00000 0 -11998463.429 14197272.053 -17467669.073 10 0 61005 80100.00000 0 -11377808.124 11999077.607 -19416156.857 10 0 61005 81000.00000 0 -10890398.182 9546206.933 -20987332.227 10 0 61005 81900.00000 0 -10573251.216 6895697.492 -22150477.022 10 0 61005 82800.00000 0 -10452840.662 4111803.560 -22882786.435 10 0 61005 83700.00000 0 -10543902.105 1263560.237 -23169827.188 10 0 61005 84600.00000 0 -10848750.715 -1577852.384 -23005833.230 10 0 61005 85500.00000 0 -11357140.043 -4341835.751 -22393832.204 10 0 61006 0.00000 0 -12046669.560 -6961076.559 -21345599.282 10 0 61006 900.00000 0 -12883725.337 -9374116.259 -19881437.591 10 0 61006 1800.00000 0 -13824914.204 -11527675.354 -18029790.079 10 0 61006 2700.00000 0 -14818932.518 -13378639.702 -15826687.875 10 0 61006 3600.00000 0 -15808789.781 -14895621.880 -13315046.712 10 0 61006 4500.00000 0 -16734292.947 -16060033.481 -10543824.708 10 0 61006 5400.00000 0 -17534685.407 -16866623.374 -7567058.364 10 0 61006 6300.00000 0 -18151327.730 -17323460.014 -4442796.422 10 0 61006 7200.00000 0 -18530305.264 -17451359.733 -1231953.585 10 0 61006 8100.00000 0 -18624850.809 -17282786.798 2002892.025 10 0 61006 9000.00000 0 -18397478.561 -16860273.727 5198732.669 10 0 61006 9900.00000 0 -17821738.150 -16234430.838 8293370.303 10 0 61006 10800.00000 0 -16883514.117 -15461631.447 11226635.911 10 0 61006 11700.00000 0 -15581815.936 -14601472.620 13941564.075 10 0 61006 12600.00000 0 -13929025.620 -13714120.463 16385499.317 10 0 61006 13500.00000 0 -11950593.147 -12857653.134 18511112.716 10 0 61006 14400.00000 0 -9684193.277 -12085514.150 20277309.617 10 0 61006 15300.00000 0 -7178379.854 -11444183.070 21650011.817 10 0 61006 16200.00000 0 -4490794.371 -10971160.780 22602800.541 10 0 61006 17100.00000 0 -1686003.689 -10693352.728 23117409.451 10 0 61006 18000.00000 0 1166943.336 -10625916.428 23184059.878 10 0 61006 18900.00000 0 3997139.602 -10771619.837 22801633.495 10 0 61006 19800.00000 0 6734516.275 -11120735.948 21977680.485 10 0 61006 20700.00000 0 9312501.946 -11651476.743 20728264.072 10 0 61006 21600.00000 0 11670536.197 -12330947.479 19077645.030 10 0 61006 22500.00000 0 13756335.528 -13116581.033 17057812.328 10 0 61006 23400.00000 0 15527819.760 -13957992.342 14707868.668 10 0 61006 24300.00000 0 16954620.856 -14799175.813 12073282.063 10 0 61006 25200.00000 0 18019113.135 -15580954.409 9205016.909 10 0 61006 26100.00000 0 18716923.164 -16243578.638 6158560.202 10 0 61006 27000.00000 0 19056898.963 -16729367.255 2992860.527 10 0 61006 27900.00000 0 19060540.171 -16985279.445 -230800.820 10 0 61006 28800.00000 0 18760913.022 -16965310.735 -3449985.729 10 0 61006 29700.00000 0 18201095.349 -16632611.781 -6602300.224 10 0 61006 30600.00000 0 17432216.322 -15961240.283 -9626597.832 10 0 61006 31500.00000 0 16511172.710 -14937471.208 -12464162.356 10 0 61006 32400.00000 0 15498117.110 -13560608.579 -15059847.274 10 0 61006 33300.00000 0 14453823.348 -11843262.648 -17363149.621 10 0 61006 34200.00000 0 13437039.723 -9811078.440 -19329197.225 10 0 61006 35100.00000 0 12501941.512 -7501924.532 -20919629.751 10 0 61006 36000.00000 0 11695790.313 -4964573.448 -22103355.917 10 0 61006 36900.00000 0 11056899.385 -2256926.554 -22857171.432 10 0 61006 37800.00000 0 10612991.503 556144.515 -23166224.883 10 0 61006 38700.00000 0 10380019.544 3405251.472 -23024321.554 10 0 61006 39600.00000 0 10361500.621 6219136.812 -22434058.268 10 0 61006 40500.00000 0 10548392.971 8927405.402 -21406785.573 10 0 61006 41400.00000 0 10919521.783 11463226.488 -19962396.976 10 0 61006 42300.00000 0 11442536.758 13765893.196 -18128948.406 10 0 61006 43200.00000 0 12075361.376 15783132.223 -15942114.632 10 0 61006 44100.00000 0 12768072.590 17473066.664 -13444492.774 10 0 61006 45000.00000 0 13465130.982 18805749.361 -10684766.502 10 0 61006 45900.00000 0 14107866.058 19764202.361 -7716747.559 10 0 61006 46800.00000 0 14637110.171 20344919.119 -4598314.134 10 0 61006 47700.00000 0 14995867.973 20557809.052 -1390267.997 10 0 61006 48600.00000 0 15131906.709 20425588.113 1844865.860 10 0 61006 49500.00000 0 15000156.129 19982642.788 5044072.044 10 0 61006 50400.00000 0 14564815.193 19273417.555 8145084.403 10 0 61006 51300.00000 0 13801075.557 18350396.061 11087606.912 10 0 61006 52200.00000 0 12696388.625 17271763.436 13814490.999 10 0 61006 53100.00000 0 11251222.702 16098850.225 16272845.765 10 0 61006 54000.00000 0 9479278.742 14893467.155 18415059.484 10 0 61006 54900.00000 0 7407156.185 13715243.771 20199713.061 10 0 61006 55800.00000 0 5073483.608 12619083.043 21592368.714 10 0 61006 56700.00000 0 2527551.052 11652838.329 22566220.031 10 0 61006 57600.00000 0 -172498.574 10855308.984 23102592.496 10 0 61006 58500.00000 0 -2961843.793 10254637.067 23191286.546 10 0 61006 59400.00000 0 -5771434.719 9867170.378 22830758.237 10 0 61006 60300.00000 0 -8530618.390 9696837.494 22028135.417 10 0 61006 61200.00000 0 -11169831.834 9735059.216 20799070.199 10 0 61006 62100.00000 0 -13623252.980 9961198.692 19167431.165 10 0 61006 63000.00000 0 -15831301.527 10343530.425 17164841.385 10 0 61006 63900.00000 0 -17742888.014 10840687.139 14830070.864 10 0 61006 64800.00000 0 -19317319.622 11403523.926 12208294.447 10 0 61006 65700.00000 0 -20525785.162 11977321.924 9350228.515 10 0 61006 66600.00000 0 -21352358.682 12504239.753 6311162.021 10 0 61006 67500.00000 0 -21794480.718 12925910.522 3149899.365 10 0 61006 68400.00000 0 -21862897.534 13186075.952 -72365.600 10 0 61006 69300.00000 0 -21581060.843 13233147.268 -3293223.649 10 0 61006 70200.00000 0 -20984012.844 13022585.189 -6450250.458 10 0 61006 71100.00000 0 -20116802.694 12518998.417 -9482210.415 10 0 61006 72000.00000 0 -19032500.153 11697871.409 -12330240.981 10 0 61006 72900.00000 0 -17789889.036 10546847.266 -14938994.776 10 0 61006 73800.00000 0 -16450936.718 9066509.904 -17257717.209 10 0 61006 74700.00000 0 -15078145.497 7270630.311 -19241238.463 10 0 61006 75600.00000 0 -13731896.880 5185864.027 -20850860.194 10 0 61006 76500.00000 0 -12467900.363 2850909.824 -22055119.203 10 0 61006 77400.00000 0 -11334854.228 315162.227 -22830412.545 10 0 61006 78300.00000 0 -10372417.175 -2363088.173 -23161471.108 10 0 61006 79200.00000 0 -9609576.790 -5118833.463 -23041671.569 10 0 61006 80100.00000 0 -9063484.269 -7882816.800 -22473179.608 10 0 61006 81000.00000 0 -8738805.317 -10584188.438 -21466920.559 10 0 61006 81900.00000 0 -8627615.269 -13153239.112 -20042377.059 10 0 61006 82800.00000 0 -8709843.454 -15524096.611 -18227216.681 10 0 61006 83700.00000 0 -8954248.267 -17637272.563 -16056756.123 10 0 61006 84600.00000 0 -9319881.684 -19441952.367 -13573271.932 10 0 61006 85500.00000 0 -9757980.712 -20897931.732 -10825171.165 10 0 61007 0.00000 0 -10214204.757 -21977118.108 -7866038.786 10 0 61007 900.00000 0 -10631123.023 -22664534.321 -4753579.531 10 0 61007 1800.00000 0 -10950844.332 -22958781.137 -1548480.072 10 0 61007 2700.00000 0 -11117676.957 -22871942.017 1686790.160 10 0 61007 3600.00000 0 -11080703.414 -22428933.885 4889210.583 10 0 61007 4500.00000 0 -10796159.855 -21666333.649 7996449.405 10 0 61007 5400.00000 0 -10229518.115 -20630731.914 10948086.056 10 0 61007 6300.00000 0 -9357181.597 -19376685.384 13686791.247 10 0 61007 7200.00000 0 -8167723.103 -17964356.258 16159441.016 10 0 61007 8100.00000 0 -6662612.530 -16456939.631 18318143.053 10 0 61007 9000.00000 0 -4856404.202 -14917988.188 20121155.850 10 0 61007 9900.00000 0 -2776376.583 -13408747.043 21533683.826 10 0 61007 10800.00000 0 -461639.979 -11985610.239 22528534.416 10 0 61007 11700.00000 0 2038250.113 -10697804.536 23086626.100 10 0 61007 12600.00000 0 4665116.116 -9585395.911 23197339.275 10 0 61007 13500.00000 0 7354342.412 -8677700.206 22858704.902 10 0 61007 14400.00000 0 10037330.360 -7992162.205 22077428.716 10 0 61007 15300.00000 0 12644123.560 -7533747.869 20868751.617 10 0 61007 16200.00000 0 15106096.019 -7294873.227 19256149.594 10 0 61007 17100.00000 0 17358593.518 -7255871.374 17270879.087 10 0 61007 18000.00000 0 19343420.412 -7385976.997 14951376.329 10 0 61007 18900.00000 0 21011070.432 -7644786.706 12342521.541 10 0 61007 19800.00000 0 22322610.341 -7984133.872 9494781.235 10 0 61007 20700.00000 0 23251139.321 -8350299.674 6463244.046 10 0 61007 21600.00000 0 23782764.104 -8686468.030 3306567.529 10 0 61007 22500.00000 0 23917049.586 -8935321.806 85855.100 10 0 61007 23400.00000 0 23666926.044 -9041671.595 -3136516.150 10 0 61007 24300.00000 0 23058056.467 -8955006.624 -6298094.919 10 0 61007 25200.00000 0 22127689.775 -8631860.183 -9337559.834 10 0 61007 26100.00000 0 20923047.125 -8037889.334 -12195905.279 10 0 61007 27000.00000 0 19499308.023 -7149580.154 -14817586.091 10 0 61007 27900.00000 0 17917279.797 -5955505.066 -17151598.877 10 0 61007 28800.00000 0 16240847.436 -4457077.296 -19152478.700 10 0 61007 29700.00000 0 14534310.226 -2668768.282 -20781191.417 10 0 61007 30600.00000 0 12859716.580 -617776.241 -22005903.795 10 0 61007 31500.00000 0 11274308.860 1656842.904 -22802615.747 10 0 61007 32400.00000 0 9828185.591 4105548.446 -23155641.609 10 0 61007 33300.00000 0 8562279.554 6670136.549 -23057930.183 10 0 61007 34200.00000 0 7506737.243 9285936.361 -22511216.318 10 0 61007 35100.00000 0 6679768.320 11884290.198 -21526000.021 10 0 61007 36000.00000 0 6087014.009 14395215.031 -20121352.506 10 0 61007 36900.00000 0 5721461.384 16750134.261 -18324552.006 10 0 61007 37800.00000 0 5563907.298 18884565.379 -16170555.732 10 0 61007 38700.00000 0 5583952.168 20740650.482 -13701317.813 10 0 61007 39600.00000 0 5741481.001 22269422.851 -10964966.443 10 0 61007 40500.00000 0 5988568.032 23432713.787 -8014856.633 10 0 61007 41400.00000 0 6271722.915 24204619.126 -4908517.762 10 0 61007 42300.00000 0 6534381.588 24572463.540 -1706517.668 10 0 61007 43200.00000 0 6719534.393 24537222.394 1528733.175 10 0 61007 44100.00000 0 6772378.086 24113384.188 4734212.441 10 0 61007 45000.00000 0 6642877.619 23328260.726 7847526.086 10 0 61007 45900.00000 0 6288127.709 22220775.783 10808132.234 10 0 61007 46800.00000 0 5674413.194 20839785.243 13558523.882 10 0 61007 47700.00000 0 4778880.532 19242001.350 16045346.729 10 0 61007 48600.00000 0 3590749.754 17489610.133 18220430.290 10 0 61007 49500.00000 0 2112016.087 15647683.382 20041712.745 10 0 61007 50400.00000 0 357612.214 13781494.477 21474042.475 10 0 61007 51300.00000 0 -1644975.040 11953850.561 22489842.201 10 0 61007 52200.00000 0 -3856617.101 10222551.990 23069624.477 10 0 61007 53100.00000 0 -6227946.769 8638083.919 23202350.354 10 0 61007 54000.00000 0 -8701193.687 7241634.547 22885625.974 10 0 61007 54900.00000 0 -11212376.344 6063520.518 22125734.775 10 0 61007 55800.00000 0 -13693760.384 5122082.842 20937505.780 10 0 61007 56700.00000 0 -16076482.484 4423097.166 19344021.198 10 0 61007 57600.00000 0 -18293232.418 3959721.025 17376169.168 10 0 61007 58500.00000 0 -20280883.633 3712978.734 15072050.006 10 0 61007 59400.00000 0 -21982964.745 3652762.579 12476246.772 10 0 61007 60300.00000 0 -23351870.718 3739307.839 9638973.252 10 0 61007 61200.00000 0 -24350722.904 3925079.714 6615114.693 10 0 61007 62100.00000 0 -24954801.260 4156993.197 3463178.610 10 0 61007 63000.00000 0 -25152489.390 4378873.056 244174.743 10 0 61007 63900.00000 0 -24945692.846 4534050.897 -2979555.159 10 0 61007 64800.00000 0 -24349712.743 4567990.321 -6145535.954 10 0 61007 65700.00000 0 -23392579.149 4430829.614 -9192363.547 10 0 61007 66600.00000 0 -22113871.127 4079734.478 -12060892.143 10 0 61007 67500.00000 0 -20563071.694 3480960.851 -14695381.498 10 0 61007 68400.00000 0 -18797525.455 2611539.586 -17044581.858 10 0 61007 69300.00000 0 -16880083.423 1460510.268 -19062735.278 10 0 61007 70200.00000 0 -14876532.818 29650.071 -20710473.522 10 0 61007 71100.00000 0 -12852918.843 -1666335.492 -21955594.565 10 0 61007 72000.00000 0 -10872870.277 -3600170.589 -22773701.926 10 0 61007 72900.00000 0 -8995040.757 -5732903.488 -23148693.635 10 0 61007 73800.00000 0 -7270773.063 -8015302.392 -23073090.381 10 0 61007 74700.00000 0 -5742084.611 -10389696.376 -22548195.494 10 0 61007 75600.00000 0 -4440059.003 -12792186.047 -21584082.563 10 0 61007 76500.00000 0 -3383711.511 -15155132.590 -20199409.927 10 0 61007 77400.00000 0 -2579376.471 -17409821.528 -18421064.725 10 0 61007 78300.00000 0 -2020642.383 -19489189.702 -16283642.681 10 0 61007 79200.00000 0 -1688837.200 -21330500.739 -13828773.311 10 0 61007 80100.00000 0 -1554042.702 -22877856.022 -11104303.631 10 0 61007 81000.00000 0 -1576594.059 -24084434.839 -8163356.578 10 0 61007 81900.00000 0 -1708999.725 -24914368.758 -5063283.235 10 0 61007 82800.00000 0 -1898198.592 -25344170.736 -1864530.463 10 0 61007 83700.00000 0 -2088056.809 -25363658.641 1370552.571 10 0 61007 84600.00000 0 -2221996.365 -24976334.587 4578944.101 10 0 61007 85500.00000 0 -2245642.034 -24199204.915 7698190.090 99